Historyczne dane pomiarowe

Dodano dane terminowe – wersja testowa.

Dane z okresu 1951-2019

Wersja bazy: 1.34 [2019-03-16, lista zmian], aktualizacja planowana na 2019-04-15

Dane meteo z obszaru Polski uzyskane na podstawie danych udostępnionych przez Instytut Meteorologii i Gospodarki Wodnej – Państwowy Instytut Badawczy.

 

Wybierz Datę:    

       

TemperaturaWilgotnośćWiatrCiśnienieOpadyŚniegCzas trwania zjawisk
 Stacja t tx tn tng RH VA  wxwx mslp ppp RRR   cm mm wxwxwxwxwxwxwx
2019-07-25 13.1 18.2 6.8--- 5.0 1.3---- 0.0------------
2019-07-24 11.3 14.7 8.3--- 7.7 1.3---- 0.4------------
2019-07-23 9.8 11.8 8.4--- 8.0 1.3---- 34.4------------
2019-07-22 11.8 16.2 8.7--- 7.0 2.0---- 5.0------------
2019-07-21 14.8 20.2 10.9--- 7.7 5.3---- 41.5------------
2019-07-20 12.7 16.2 8.7--- 6.3 4.3---- 0.4------------
2019-07-19 11.6 16.7 6.8--- 6.3 4.0---- 0.7------------
2019-07-18 9.5 14.2 4.3--- 6.3 2.0---- 0.0------------
2019-07-17 7.8 12.2 2.8--- 5.3 2.7---- 0.0------------
2019-07-16 9.5 13.7 5.4--- 4.7 4.3---- 0.0------------
2019-07-15 7.9 13.2 4.3--- 4.7 3.3---- 0.0------------
2019-07-14 6.7 9.7 4.8--- 8.0 4.0---- 10.5------------
2019-07-13 8.7 13.7 5.3--- 8.0 1.0---- 21.4------------
2019-07-12 8.3 12.2 3.2--- 4.7 2.3---- 0.0------------
2019-07-11 3.8 5.3 1.4--- 7.7 4.0---- 11.0------------
2019-07-10 4.2 7.7 1.7--- 7.7 3.7---- 7.3------------
2019-07-09 5.6 10.2 1.4--- 6.0 4.0---- 1.4------------
2019-07-08 6.9 11.2 1.9--- 6.0 3.7---- 0.0------------
2019-07-07 12.8 17.2 9.5--- 5.7 5.3---- 4.2------------
2019-07-06 12.0 16.2 7.8--- 4.7 7.0---- 0.0------------
2019-07-05 10.1 13.7 6.8--- 6.3 6.0---- 0.0------------
2019-07-04 9.4 16.2 3.8--- 0.7 3.0---- 0.0------------
2019-07-03 9.7 16.2 5.3--- 3.0 2.7---- 0.0------------
2019-07-02 15.1 20.2 12.2--- 5.0 4.3---- 0.2------------
2019-07-01 20.5 24.8 16.6--- 4.0 5.7---- 0.0------------
2019-06-30 18.0 25.2 8.3--- 0.0 3.7---- 0.0------------
2019-06-29 10.9 16.2 6.3--- 4.0 3.0---- 0.0------------
2019-06-28 8.4 13.2 5.3--- 6.7 3.3---- 0.1------------
2019-06-27 15.8 20.2 12.2--- 4.7 5.7---- 0.0------------
2019-06-26 18.5 25.2 12.7--- 1.3 4.3---- 0.0------------
2019-06-25 15.7 23.2 8.3--- 1.7 1.7---- 0.0------------
2019-06-24 11.0 13.7 9.2--- 8.0 3.3---- 0.0------------
2019-06-23 10.9 13.2 9.6--- 8.0 4.0---- 10.7------------
2019-06-22 10.9 13.2 8.3--- 8.0 2.0---- 4.2------------
2019-06-21 12.9 17.2 9.7--- 8.0 1.3---- 3.9------------
2019-06-20 13.1 17.9 10.2--- 6.7 1.0---- 6.0------------
2019-06-19 13.4 19.2 9.2--- 6.7 3.0---- 3.4------------
2019-06-18 10.8 16.2 4.8--- 6.0 2.7---- 7.0------------
2019-06-17 9.6 12.7 6.8--- 6.3 2.0---- 19.7------------
2019-06-16 15.0 22.7 10.7--- 6.0 2.7---- 11.4------------
2019-06-15 18.1 24.2 13.1--- 3.7 5.3---- 0.0------------
2019-06-14 17.6 23.8 11.7--- 5.3 1.7---- 0.0------------
2019-06-13 17.4 23.7 11.7--- 2.7 4.3---- 0.0------------
2019-06-12 16.3 20.2 12.2--- 2.3 6.0---- 0.0------------
2019-06-11 15.9 19.7 11.7--- 2.0 3.7---- 0.0------------
2019-06-10 15.1 20.2 10.5--- 3.0 3.7---- 0.0------------
2019-06-09 11.3 18.7 6.8--- 6.0 2.7---- 0.0------------
2019-06-08 13.0 20.7 8.2--- 5.0 1.3---- 1.8------------
2019-06-07 11.8 18.7 6.3--- 6.0 2.7---- 1.9------------
2019-06-06 10.9 15.7 6.3--- 5.0 3.3---- 0.0------------
2019-06-05 12.0 16.7 7.8--- 5.0 2.3---- 0.0------------
2019-06-04 11.8 17.7 6.8--- 3.7 2.0---- 0.0------------
2019-06-03 11.2 15.7 6.2--- 4.7 2.7---- 0.2-- 48---------
2019-06-02 10.2 14.7 6.3--- 4.7 2.0---- 0.0-- 52---------
2019-06-01 7.9 12.2 4.3--- 6.7 4.0---- 2.7-- 56---------
2019-05-31 6.1 10.2 2.4--- 7.3 1.0---- 0.0-- 58---------
2019-05-30 3.1 5.7 0.9--- 8.0 2.0---- 12.3-- 60---------
2019-05-29 5.5 8.2 2.8--- 7.3 1.7---- 16.9-- 62---------
2019-05-28 7.8 9.7 5.8--- 8.0 5.0---- 13.0-- 65---------
2019-05-27 9.7 13.7 6.3--- 6.3 4.0---- 13.6-- 68---------
2065.2 ms

 

Źródłem pochodzenia danych jest Instytut Meteorologii i Gospodarki Wodnej – Państwowy Instytut Badawczy. Dane Instytutu Meteorologii i Gospodarki Wodnej – Państwowego Instytutu Badawczego zostały przetworzone.

Dane źródłowe można odnaleźć na stronie https://dane.imgw.pl